Location: Newark
(47.4417°N, 1.1394°W)
Time: 02:07:17
(UTC+00:00)

Envisat - Visible Passes

Search period start: 25 January 2021 00:00
Search period end: 04 February 2021 00:00
Orbit: 764 x 766 km, 98.1° (Epoch: 24 January)

Date Brightness Start Highest point End Pass type
(mag) Time Alt. Az. Time Alt. Az. Time Alt. Az.
25 Jan 5.8 04:37:27 10° NE 04:40:38 17° E 04:43:49 10° SE visible
25 Jan 2.9 06:15:07 10° N 06:20:12 72° WNW 06:25:15 10° SSW visible
25 Jan 4.6 17:33:15 10° SSW 17:37:59 40° W 17:42:46 10° NNW visible
26 Jan 3.7 05:38:21 10° NNE 05:43:22 56° E 05:48:21 10° S visible
26 Jan 6.3 18:39:16 10° WSW 18:40:53 11° W 18:42:30 10° WNW visible
27 Jan 5.1 05:02:01 10° NE 05:06:19 27° E 05:10:37 10° SSE visible
27 Jan 3.3 06:40:42 10° N 06:45:30 43° WNW 06:50:17 10° SW visible
27 Jan 5.6 17:59:30 10° SW 18:03:35 24° W 18:07:42 10° NW visible
28 Jan 6.1 04:26:43 10° ENE 04:29:04 13° E 04:31:26 10° ESE visible
28 Jan 3.0 06:03:41 10° NNE 06:08:48 88° WNW 06:13:53 10° SSW visible
29 Jan 4.1 05:27:01 10° NNE 05:31:54 45° E 05:36:45 10° S visible
29 Jan 6.1 18:26:33 10° WSW 18:29:18 15° W 18:32:03 10° NW visible
30 Jan 5.4 04:50:52 10° NE 04:54:48 22° E 04:58:43 10° SE visible
30 Jan 3.1 06:29:12 10° N 06:34:09 54° WNW 06:39:04 10° SW visible
30 Jan 5.2 17:47:39 10° SSW 17:52:05 30° W 17:56:32 10° NNW visible
31 Jan 6.3 04:16:57 10° ENE 04:17:29 10° E 04:18:02 10° E visible
31 Jan 3.2 05:52:16 10° NNE 05:57:23 76° ESE 06:02:28 10° S visible
01 Feb 4.6 05:15:44 10° NNE 05:20:25 36° E 05:25:05 10° SSE visible
01 Feb 3.6 06:54:52 10° N 06:59:24 33° WNW 07:03:55 10° SW visible
01 Feb 6.0 18:14:18 10° SW 18:17:44 18° W 18:21:12 10° NW visible
02 Feb 5.7 04:39:51 10° NE 04:43:16 18° E 04:46:40 10° SE visible
02 Feb 2.9 06:17:43 10° N 06:22:46 67° WNW 06:27:48 10° SSW visible
02 Feb 4.8 17:35:54 10° SSW 17:40:35 37° W 17:45:18 10° NNW visible
03 Feb 3.6 05:40:54 10° NNE 05:45:57 61° E 05:50:58 10° S visible
03 Feb 6.6 18:42:38 10° W 18:43:31 10° W 18:44:23 10° WNW visible
